Regional Weather Roundup
Issued by NWS

Home | Current Version | Previous Version | Graphics & Text | Print | Product List | Glossary On
Versions: 1 2 3 4 5 6 7 8 9 10 11 12 13 14 15 16 17 18 19 20 21 22 23 24 25 26 27 28 29 30 31 32 33 34 35 36 37 38 39 40 41 42 43 44 45 46 47 48 49 50
000
ASUS45 KTFX 020910
RWRMT
MONTANA REGIONAL WEATHER ROUNDUP
NATIONAL WEATHER SERVICE GREAT FALLS MT
300 AM MDT THU JUL 02 2015

NOTE: "FAIR" INDICATES FEW OR NO CLOUDS BELOW 12000 FEET WITH NO
SIGNIFICANT WEATHER AND/OR OBSTRUCTIONS TO VISIBILITY.

MTZ001>007-043-021000-
WEST OF THE DIVIDE

CITY           SKY/WX    TMP DP  RH WIND       PRES   REMARKS
KALISPELL      SUNNY     70  52  52 N8        30.08S
MISSOULA       CLEAR     72  51  47 SE8       30.09R
BUTTE          CLEAR     54  46  74 SE3       30.25S
MULLAN PASS    CLEAR     69  37  30 CALM      30.24S
DEER LODGE       N/A     63  52  67 NW8       30.25S
EUREKA           N/A     63  52  67 CALM      30.09R
HAMILTON         N/A     59  45  58 SE3       30.10R
RONAN            N/A     64  51  62 SE1       30.11R
$$

MTZ008-052>055-021000-
SOUTHWEST MONTANA

CITY           SKY/WX    TMP DP  RH WIND       PRES   REMARKS
BOZEMAN        CLEAR     61  52  72 CALM      30.18R
DILLON         CLEAR     60  49  66 E6        30.20R
W YELLOWSTONE  CLEAR     46  43  87 SE3       30.27S
THREE FORKS      N/A     59  59 100 CALM      30.16R
TWIN BRIDGES     N/A     67  49  52 N14       30.15R
$$

MTZ009-010-012-014-046-048-049-054-021000-
EAST SLOPES AND CENTRAL MONTANA

CITY           SKY/WX    TMP DP  RH WIND       PRES   REMARKS
CUT BANK       CLEAR     55  50  83 NW6       30.21S
GREAT FALLS    PTCLDY    63  51  65 E3        30.18S
MALMSTROM AFB  MOCLDY    62  52  69 S2        30.18S
HELENA         PTCLDY    67  51  56 W7        30.18R
$$

MTZ011-013-016-021-045-047-050-051-021000-
NORTH CENTRAL MONTANA

CITY           SKY/WX    TMP DP  RH WIND       PRES   REMARKS
HAVRE          CLEAR     56  53  90 W5        30.12S
LEWISTOWN      MOCLDY    61  52  72 W9        30.20R
CHINOOK          N/A     59  55  88 CALM      30.11S
FORT BENTON      N/A     63  54  72 CALM      30.16S
$$

MTZ017>020-022>027-061-062-021000-
NORTHEAST MONTANA

CITY           SKY/WX    TMP DP  RH WIND       PRES   REMARKS
GLASGOW        CLEAR     59  52  77 NW8       30.05R
JORDAN           N/A     57  53  86 W6        30.08F
SIDNEY         PTCLDY    59  54  82 CALM      30.02S
WOLF POINT     CLEAR     57  54  89 SW6       30.03S
MALTA            N/A     59  53  80 CALM      30.04S
PLENTYWOOD       N/A     55  54  94 NW7       30.01S
SCOBEY           N/A     54  50  86 CALM      30.02S
$$

MTZ028>42-056>058-021000-
SOUTHCENTRAL AND SOUTHEAST MONTANA

CITY           SKY/WX    TMP DP  RH WIND       PRES   REMARKS
BAKER          PTCLDY    58  56  93 W6        30.07R
BILLINGS       PTCLDY    66  55  67 VRB7      30.15S
LIVINGSTON     CLEAR     63  53  70 E8        30.19S
MILES CITY     CLEAR     62  57  83 NW10      30.06S
EKALAKA          N/A     56  53  89 CALM      30.07R
FORSYTH          N/A     63  63 100 W3        30.08R
LAUREL           N/A     65  51  60 W1        30.12S
ROUNDUP          N/A     64  55  72 CALM      30.05F
$$

REGIONAL REPORTS...DAKOTAS

CITY           SKY/WX    TMP DP  RH WIND       PRES   REMARKS
WILLISTON      CLEAR     59  55  87 SW6       29.99F
MINOT          PTCLDY    62  60  93 CALM      29.94S FOG
DICKINSON      PTCLDY    60  58  92 NW7       29.99S FOG
BEACH          CLOUDY    55  55 100 S3        30.04S
CROSBY         FAIR      59  59 100 SW5       29.98S FOG
BISMARCK       CLOUDY    68  65  90 W8        29.94S THUNDER
GRAND FORKS    CLEAR     59  56  89 S3        29.94S
FARGO          CLEAR     60  55  83 SE6       29.97S
BUFFALO SD       N/A     58  57  97 W7        29.99R
RAPID CITY     MOCLDY    64  60  87 W5        30.02F
$$

REGIONAL REPORTS...WYOMING/IDAHO/WASHINGTON

CITY           SKY/WX    TMP DP  RH WIND       PRES   REMARKS
GILLETTE       CLOUDY    62  58  86 W8        30.14F
SHERIDAN       CLEAR     57  53  86 SW3       30.14R
BUFFALO WY     PTCLDY    61  55  81 W3        30.20R
CODY           CLEAR     64  45  48 N5        30.21S
YELLOWSTONE LA   N/A     48  40  73 CALM      30.37R
IDAHO FALLS    CLEAR     61  54  77 N7        30.09R
SALMON         CLEAR     59  46  63 CALM      30.10R
BOISE          MOCLDY    80  37  21 S6        29.95R
SPOKANE        CLEAR     73  44  35 SW3       30.00S
$$

REGIONAL REPORTS...ALBERTA

CITY           SKY/WX    TMP DP  RH WIND       PRES   REMARKS
EDMONTON       CLEAR     61  52  72 NW5       30.09S
CALGARY        CLEAR     57  52  82 N5        30.19S
LETHBRIDGE     CLEAR     54  52  94 SW7       30.17F
MEDICINE HAT   CLEAR     57  55  94 S6        30.12S FOG
CARDSTON         N/A     52  52 100 S3          N/A
MILK RIVER       N/A     54  52  94 NW9         N/A
ONEFOUR          N/A     57  54  88 NW10        N/A
$$

REGIONAL REPORTS...SASKATCHEWAN

CITY           SKY/WX    TMP DP  RH WIND       PRES   REMARKS
SWIFT CURRENT  CLOUDY    61 N/A N/A NW9       30.05S
REGINA         PTCLDY    55  55 100 N3        30.00R FOG
SASKATOON      PTCLDY    59  57  94 NW7       30.01R
CYPRESS HILLS    N/A     55  52  88 NW5         N/A
VAL MARIE        N/A     55  54  94 NW7         N/A
ASSINIBOIA       N/A     57  55  94 W3          N/A
$$



USA.gov is the U.S. government's official web portal to all federal, state and local government web resources and services.